Theta_e
313 314 314 314 314 314 315 315 315 314 314 314 313 313 311 309 307 307 306 307 308 307 307 307 307 308 307 307 307 307 307 307 311 314 316 319 318 317 315 311 312 312 311 312 312 313 313 313 313 314 315 316 319 321 319 321 326 333 338 329 325 328 321 316 320 323 323 319 318 318 318 319 317 317 315 315 317 317 317 318 318 320 326 331 332 331 333 335
313 314 314 314 314 314 315 314 314 313 313 313 313 313 312 309 307 306 306 307 307 307 307 307 307 308 307 307 307 307 307 308 314 319 319 318 315 312 313 311 313 312 312 312 313 314 314 314 312 313 317 318 319 321 321 322 323 329 331 325 329 328 317 316 318 318 321 319 318 318 318 318 318 317 315 315 316 317 317 317 318 323 327 331 331 332 334 333
314 314 313 313 314 314 314 313 313 313 313 313 313 313 311 309 307 306 306 306 307 307 306 307 307 308 307 307 307 307 309 313 316 319 320 318 313 311 313 313 313 312 312 313 315 315 313 314 312 313 317 315 317 320 322 323 319 327 334 328 325 323 317 317 318 318 319 318 319 317 316 317 317 316 315 316 317 317 318 317 319 322 326 333 331 329 332 332
313 313 313 313 313 313 313 313 313 314 313 313 313 312 311 309 308 306 306 306 307 307 307 307 307 307 307 306 308 308 313 317 318 319 319 316 312 313 314 313 314 312 313 314 315 314 314 314 311 313 316 315 318 319 321 322 318 322 332 329 321 319 321 318 317 320 319 317 318 318 317 317 316 316 315 317 316 316 318 316 319 321 324 330 331 327 330 330
313 313 312 313 313 312 313 313 314 314 314 313 312 310 309 309 307 306 306 306 306 307 307 307 307 307 306 306 307 311 315 313 316 319 316 312 312 313 313 312 313 313 313 314 314 314 314 313 312 315 316 315 318 316 316 319 319 318 320 322 319 319 321 317 317 320 319 318 318 317 317 316 316 316 316 316 318 318 318 316 318 319 319 327 330 327 327 328
313 312 312 312 312 312 313 313 313 313 313 313 311 309 308 308 307 306 306 306 306 306 307 307 307 306 306 308 307 312 315 311 315 318 313 312 313 312 313 313 313 313 313 314 314 314 314 314 313 316 316 316 317 314 315 316 317 318 316 317 319 320 320 317 317 319 319 320 318 317 316 316 316 317 317 316 318 319 318 319 320 316 315 322 327 326 327 328
312 311 311 312 311 312 312 312 312 312 312 311 309 308 307 307 307 306 305 306 306 306 307 307 307 306 307 309 309 314 317 315 316 316 312 312 312 312 314 314 314 313 314 314 314 315 315 315 314 316 316 315 316 314 316 316 316 319 317 316 317 319 319 316 317 317 319 320 317 317 315 316 318 317 317 317 319 319 317 318 318 314 313 320 326 326 326 327
312 311 311 311 311 311 311 311 311 311 311 309 308 307 306 306 306 305 305 305 306 306 306 306 307 306 306 310 314 317 316 316 317 314 311 312 312 313 314 314 315 314 315 315 315 315 314 315 314 315 315 314 316 316 317 315 315 317 317 317 316 317 317 316 317 317 317 318 316 317 317 317 319 317 317 318 320 320 316 315 317 315 315 321 327 327 325 325
312 311 310 310 310 310 310 310 310 310 310 309 308 306 306 306 305 305 305 305 306 306 306 307 306 306 306 311 318 317 315 317 316 312 311 312 312 314 315 315 316 315 316 315 314 314 314 316 315 315 315 315 317 316 316 316 315 316 317 317 317 316 315 315 316 316 317 316 316 318 318 317 318 316 318 320 321 319 317 318 319 319 319 322 326 325 322 324
312 311 310 310 309 309 309 309 309 309 309 308 307 306 306 306 306 305 305 305 305 306 307 306 307 307 306 311 315 314 316 317 314 312 312 311 313 314 315 315 316 316 316 314 314 315 316 317 316 316 316 316 317 317 317 318 316 317 318 318 318 316 316 316 316 316 317 317 316 317 318 317 316 316 318 321 320 317 318 319 317 319 322 320 322 322 320 322
311 311 310 310 309 309 308 308 308 309 310 309 307 306 306 306 306 305 305 305 305 306 306 306 307 308 309 313 314 313 316 316 313 313 311 312 313 313 315 315 315 317 316 315 315 316 316 316 316 316 315 314 317 318 318 318 317 317 318 317 317 317 316 317 316 316 317 316 316 317 318 317 316 317 319 319 318 316 319 321 317 319 321 317 320 321 318 319
310 310 310 309 309 308 308 308 309 310 310 309 308 307 306 306 306 305 305 305 305 305 306 307 307 309 312 312 314 316 316 315 314 312 311 313 313 313 316 315 315 316 316 316 316 315 316 316 316 317 315 315 317 317 316 317 317 318 320 319 316 316 317 317 317 317 317 317 317 316 315 317 317 319 319 318 320 318 318 321 319 319 319 317 318 318 318 317
310 310 309 309 309 309 309 309 309 310 311 309 308 307 307 306 306 305 305 304 306 306 306 308 307 311 312 310 313 316 315 314 313 312 313 313 313 314 315 315 315 315 316 316 315 314 315 316 318 318 316 318 317 314 316 317 318 318 317 320 318 316 319 319 316 317 316 317 318 315 313 319 322 319 317 318 321 320 319 320 319 320 320 319 318 317 318 315
309 310 310 309 309 310 310 309 310 311 311 309 308 307 307 307 306 306 306 305 305 306 307 308 309 312 310 310 314 315 314 312 312 312 314 314 314 315 315 315 314 314 315 315 314 314 316 316 316 317 317 318 316 314 317 317 318 319 315 322 324 318 321 320 316 317 317 316 318 315 314 320 322 318 318 318 320 320 320 321 319 319 320 321 321 318 318 316
310 310 311 310 310 310 309 309 310 310 310 308 307 307 307 306 306 306 306 306 306 306 308 308 310 312 309 311 314 314 312 312 313 313 314 316 315 314 315 315 314 315 315 314 315 315 316 317 317 319 317 315 317 317 319 317 318 319 316 321 324 320 321 320 316 317 318 316 316 315 316 320 319 318 319 317 318 320 320 321 321 321 320 320 321 319 319 317
310 310 311 311 310 310 310 310 310 309 308 307 307 307 306 307 307 306 306 307 307 307 309 310 311 311 310 312 315 314 313 314 315 312 314 317 316 316 315 315 315 315 315 315 317 316 316 319 319 319 318 316 320 324 323 321 322 322 320 322 323 320 320 320 318 318 319 318 316 314 316 320 319 318 319 318 318 319 321 322 321 321 320 319 319 319 320 319
310 310 311 311 310 311 311 310 310 309 308 307 307 307 307 307 307 306 307 308 310 310 311 313 310 309 310 310 313 315 315 315 315 312 314 317 316 316 314 316 316 314 316 316 316 317 316 318 317 316 318 320 321 326 327 320 320 322 318 319 323 321 319 320 319 318 319 319 317 316 316 320 320 318 318 319 320 319 320 322 322 321 320 320 319 319 320 319
310 310 311 310 310 311 311 310 310 309 308 307 307 308 308 309 309 309 309 311 312 310 310 312 309 310 310 309 312 316 316 315 314 313 314 316 315 315 316 316 314 315 317 317 317 317 317 320 323 321 318 318 318 325 333 326 323 326 320 318 322 320 318 321 320 317 318 318 317 318 318 319 321 318 316 317 320 320 321 322 321 321 321 320 320 320 320 319
312 312 311 311 311 311 310 311 310 308 308 309 309 309 310 312 313 312 312 312 311 308 309 310 309 312 313 312 315 317 316 315 313 313 314 315 315 315 317 315 316 318 316 319 317 314 322 324 324 326 320 318 317 321 332 330 324 327 327 325 323 318 316 318 317 316 317 317 318 318 318 319 319 318 317 315 317 318 319 320 319 320 319 319 320 320 320 319
313 312 312 312 312 312 311 311 310 308 308 311 313 311 313 318 318 313 313 314 312 309 311 312 311 313 316 317 317 315 314 314 314 315 314 314 316 316 316 315 320 320 318 324 318 314 329 329 323 330 328 322 320 319 324 323 318 321 324 322 321 319 316 317 317 316 316 315 319 320 318 318 317 316 316 314 314 316 318 318 318 318 318 317 319 320 319 319
314 314 314 314 313 313 312 311 310 309 309 312 316 315 315 318 317 313 313 313 310 309 312 314 313 314 316 315 314 314 314 315 315 315 314 313 316 315 315 317 319 319 319 324 321 320 331 329 325 335 331 321 319 318 319 319 319 321 323 322 322 323 318 316 318 317 316 314 319 321 316 316 316 313 314 314 314 315 316 318 317 317 317 316 318 319 318 317
315 315 315 314 314 315 314 312 310 309 309 312 316 318 315 312 312 312 312 310 309 311 312 314 312 314 315 312 313 314 316 317 316 316 315 313 316 316 316 318 317 318 319 319 322 325 326 327 329 330 323 318 317 318 320 321 324 325 324 323 323 323 318 316 318 318 317 316 320 323 318 316 315 313 313 313 314 315 314 316 317 316 316 316 317 318 318 317
317 317 316 315 315 315 315 314 312 308 308 311 315 317 313 309 309 310 312 311 312 314 313 313 313 314 315 312 313 315 315 317 319 319 315 313 317 317 317 317 316 318 319 320 324 324 322 326 328 322 318 319 317 319 322 321 323 326 326 323 324 324 319 317 318 317 316 315 318 321 320 318 315 315 317 314 313 313 313 315 317 318 318 317 317 317 318 318
318 318 317 317 316 316 316 315 313 310 310 312 315 316 312 310 309 311 317 317 315 315 313 312 314 316 317 313 313 316 314 315 320 319 314 314 316 316 316 317 316 318 319 321 325 323 323 322 319 317 319 322 318 318 324 320 317 325 329 327 327 324 319 318 318 318 320 320 320 319 319 323 325 323 325 324 318 314 314 314 315 318 318 318 319 319 319 320
319 319 319 318 318 317 317 316 315 314 312 312 313 313 312 311 309 310 317 317 314 314 312 311 313 314 315 313 314 316 314 314 318 316 313 314 315 315 316 315 314 317 318 319 320 321 322 318 316 317 318 323 321 318 326 325 317 318 323 325 325 322 321 324 323 319 320 322 322 317 316 327 334 326 323 324 319 317 318 317 319 321 318 318 320 320 321 324
320 320 319 319 319 318 318 319 318 315 315 314 313 313 311 309 309 310 315 316 316 314 310 310 310 310 313 314 315 315 313 313 314 314 313 314 314 314 315 314 315 316 316 317 318 318 318 317 321 324 322 323 323 319 322 326 320 314 318 322 324 328 328 330 329 319 318 322 319 315 316 323 324 316 316 317 314 314 316 316 319 321 320 320 320 322 324 327
320 320 320 320 320 319 319 321 318 317 320 318 315 313 310 309 310 311 315 318 318 315 311 310 308 309 314 314 313 313 312 314 314 313 314 314 313 313 314 315 314 314 316 320 320 317 317 318 322 327 327 324 322 320 318 322 323 318 321 325 327 329 325 328 330 322 321 323 322 322 320 321 320 316 316 316 314 314 313 314 316 316 317 318 321 326 329 331
320 320 320 320 320 319 319 319 317 318 320 316 313 312 310 310 310 312 317 317 316 315 312 310 308 309 313 312 312 312 312 315 316 314 313 313 313 313 315 316 316 317 318 321 322 318 318 321 323 324 326 325 324 325 322 322 323 322 324 327 330 330 329 334 333 327 325 320 320 326 319 317 324 327 323 318 315 317 318 319 317 313 312 315 324 332 333 335
319 319 320 320 320 319 319 319 318 319 318 313 311 310 309 309 310 315 319 313 312 314 311 310 310 312 313 313 312 312 313 316 317 315 313 312 313 312 314 315 316 316 314 318 325 322 317 319 322 323 324 326 325 325 326 325 321 323 324 327 332 333 333 336 332 327 326 319 319 326 320 314 318 324 322 315 316 322 321 320 319 317 318 322 332 335 331 331
318 319 320 320 319 319 319 319 319 320 317 310 310 310 311 314 316 315 312 311 316 316 310 310 312 314 314 313 312 312 315 317 316 315 314 314 315 313 313 313 316 321 320 321 326 322 316 313 316 320 320 323 323 321 323 326 321 322 328 331 332 336 337 338 334 327 321 319 322 326 322 314 314 323 324 318 321 323 319 319 324 328 329 328 332 334 332 333
317 318 319 319 319 319 319 320 319 320 317 311 310 312 315 323 324 315 308 312 321 317 309 310 313 313 313 313 313 313 316 317 315 315 316 315 315 315 314 312 318 327 325 323 323 321 319 315 316 318 316 320 323 320 321 326 326 327 333 331 325 331 337 335 331 325 317 317 323 325 323 316 314 322 324 321 324 322 319 322 325 329 333 331 333 335 335 336
315 317 319 318 319 319 319 320 319 319 320 315 314 321 324 322 319 318 314 313 318 318 314 314 313 313 312 313 313 313 318 319 314 315 318 318 317 316 316 316 319 322 321 321 322 321 322 322 319 316 315 318 324 322 320 325 330 328 326 323 315 319 326 325 326 326 322 321 321 321 322 319 315 318 320 321 322 321 322 323 325 331 335 337 340 339 334 332
313 315 317 317 319 319 319 319 318 320 320 315 318 329 330 319 315 320 319 314 315 319 317 315 314 313 313 314 313 313 316 319 315 314 317 318 317 315 316 318 318 319 322 323 322 322 324 325 320 315 316 318 320 320 318 321 327 323 319 319 318 319 321 320 322 322 323 324 321 318 319 321 321 321 322 321 318 320 322 322 331 343 344 345 347 341 333 330
311 314 316 317 317 318 318 318 318 319 318 315 322 328 324 318 318 318 317 316 317 319 318 316 314 312 312 313 313 313 315 317 315 316 318 317 317 317 316 316 313 318 327 322 319 322 322 324 323 317 317 319 318 318 320 323 323 321 321 320 320 324 324 323 322 321 323 324 320 316 319 326 327 322 322 322 319 321 323 325 334 342 343 345 345 339 334 330
310 312 314 316 317 317 318 318 318 318 316 318 323 323 318 317 321 320 319 321 321 319 317 315 313 313 313 314 314 313 315 317 314 316 319 317 318 319 318 316 313 317 322 317 317 320 316 322 326 318 317 320 318 316 318 321 318 319 323 319 318 323 321 321 326 328 327 323 319 320 324 328 325 320 321 322 321 321 321 325 329 330 330 331 335 340 339 334
310 311 313 315 316 317 317 318 318 316 316 320 321 320 318 318 322 324 322 323 323 319 315 314 315 315 313 315 316 312 315 322 317 315 319 316 316 318 317 317 314 313 315 314 318 320 317 323 323 315 316 318 317 317 318 318 317 317 320 318 321 326 320 318 322 321 319 317 318 320 321 321 318 316 318 317 316 317 317 319 322 323 325 326 332 340 343 337
311 312 313 314 315 316 317 317 318 315 316 320 320 319 318 319 323 324 323 325 321 316 316 316 317 317 314 316 319 315 316 322 318 315 318 317 317 318 316 316 315 313 313 311 317 323 323 325 321 316 318 317 317 319 321 322 319 319 322 319 319 323 323 326 324 319 317 316 319 319 315 315 314 314 319 318 314 316 317 318 319 321 325 325 328 334 338 334
310 312 313 314 314 315 316 317 316 314 316 319 319 319 318 319 322 323 325 327 321 317 319 320 318 318 316 315 319 318 316 318 317 316 318 317 317 319 315 316 316 314 313 311 314 320 321 320 318 316 319 319 318 319 319 320 319 322 326 321 321 325 325 326 322 320 319 317 320 322 315 314 314 312 315 317 315 316 318 320 320 320 321 321 322 327 332 329
310 312 313 313 313 314 316 316 314 314 317 319 318 318 317 317 320 323 323 324 324 322 321 322 321 318 317 317 319 318 316 317 318 317 318 316 317 319 315 315 317 314 312 313 314 318 320 317 317 316 317 318 318 318 319 320 320 323 321 317 321 327 327 326 321 320 321 317 317 319 314 314 315 313 313 314 316 316 316 319 322 322 320 319 320 325 331 333
309 312 314 313 313 315 315 314 313 315 317 317 315 316 316 316 317 320 321 321 324 323 322 327 326 320 319 319 319 319 317 317 318 317 318 316 316 319 315 313 317 316 313 312 314 317 316 315 316 317 316 317 319 319 318 319 320 322 320 318 320 320 321 324 322 320 322 319 317 315 313 314 314 315 315 314 316 316 316 319 323 324 320 318 321 327 335 340
309 311 313 314 314 315 314 313 314 315 316 316 314 314 315 316 316 318 319 319 321 321 322 325 325 324 324 321 319 320 317 317 318 317 317 315 315 319 317 315 317 317 315 314 315 317 315 316 322 322 318 319 323 322 317 316 318 318 318 319 319 318 319 321 320 320 320 321 323 319 314 313 313 314 316 316 318 320 321 321 324 327 323 323 332 341 345 347
309 311 312 314 315 314 313 314 314 314 316 316 315 315 315 316 317 317 317 318 319 319 320 320 319 322 327 324 324 324 321 318 318 318 317 315 316 318 320 322 322 316 316 316 315 316 319 321 324 324 320 320 321 321 318 317 317 317 318 317 316 317 320 319 321 324 321 322 326 322 316 314 314 318 319 318 319 323 330 332 331 334 334 335 344 346 340 338
308 310 311 313 314 313 313 315 315 314 316 317 316 315 316 317 318 318 318 318 318 319 320 319 319 321 322 321 322 324 322 320 319 320 320 318 317 318 321 325 323 317 316 317 316 316 318 319 318 319 321 321 321 323 322 319 318 318 320 319 317 319 321 322 327 329 325 323 321 319 318 314 317 329 330 324 324 326 331 331 325 329 338 340 340 337 332 331
307 308 310 312 312 313 314 315 315 315 315 315 316 316 316 317 317 318 318 318 318 319 319 319 320 321 319 318 319 322 321 321 322 321 321 321 320 319 322 324 323 321 320 320 320 317 317 320 318 317 319 320 322 324 322 320 319 321 325 324 320 319 319 320 323 322 322 325 322 319 319 314 318 332 329 325 328 326 326 328 324 324 334 338 338 338 338 336
306 307 308 309 310 312 314 314 314 315 314 314 316 316 316 317 317 318 318 318 317 319 318 318 319 320 320 319 319 320 319 320 322 320 321 323 322 320 321 321 323 324 321 320 321 320 320 323 319 316 317 317 320 324 325 323 320 320 325 325 320 319 319 318 320 319 318 323 322 318 317 313 315 322 321 324 329 324 324 331 328 324 328 334 337 340 340 337
306 307 306 308 310 311 313 312 312 313 314 314 315 316 315 317 317 317 318 318 317 317 318 319 319 319 320 319 319 319 318 318 319 320 321 322 323 321 318 317 320 320 318 319 322 323 324 323 318 315 316 315 320 326 326 324 322 319 321 322 319 320 319 317 320 320 317 318 318 317 317 315 315 314 314 321 326 325 327 331 330 328 329 332 334 337 337 336
305 306 306 308 310 310 311 311 311 312 313 313 314 314 315 316 316 316 317 317 318 317 317 318 318 318 319 319 319 319 318 317 318 317 317 317 320 320 317 317 318 317 317 319 321 324 323 320 318 317 317 318 321 324 321 319 320 319 319 320 319 319 320 319 318 317 316 317 316 316 316 316 315 313 313 317 319 320 321 324 326 327 326 328 332 334 335 337
303 304 306 308 309 309 309 310 311 311 311 313 314 313 314 315 316 316 317 317 317 317 318 319 318 318 319 318 319 319 318 318 318 317 316 316 317 318 318 319 317 315 318 319 319 324 325 321 320 319 320 321 319 319 320 319 320 319 318 318 318 318 319 319 318 316 316 318 316 315 317 317 315 313 313 317 319 317 317 319 320 320 321 324 325 326 328 331
301 302 304 306 308 308 307 308 310 311 311 312 313 313 314 315 315 315 316 317 317 316 317 319 318 318 318 318 318 319 318 319 318 317 317 317 317 317 318 319 315 312 317 319 317 321 323 320 320 319 319 320 317 317 320 319 320 320 318 319 320 319 318 317 317 317 317 318 317 316 318 317 315 313 314 318 319 317 318 319 318 317 318 321 321 322 325 326
301 302 303 305 307 307 306 307 309 310 310 310 312 312 312 313 314 314 315 316 317 316 316 317 317 318 318 318 318 318 318 319 319 318 318 317 318 318 318 320 318 313 314 317 316 317 318 318 317 317 319 320 318 318 318 318 319 319 319 320 320 319 318 316 316 317 317 317 317 317 318 316 315 314 315 316 316 316 317 317 316 316 317 320 321 322 323 323
300 300 301 303 305 306 306 307 308 309 309 309 310 311 311 312 313 313 314 315 316 316 316 316 317 317 317 317 318 318 317 317 318 318 318 317 318 319 318 320 321 317 315 316 316 317 317 316 314 316 320 321 319 319 319 318 318 318 319 319 319 318 318 317 317 317 316 317 317 317 318 317 314 314 316 317 315 316 317 316 315 317 318 320 321 321 321 320
298 298 299 301 303 304 306 307 308 308 308 308 308 309 310 311 312 312 313 313 314 316 316 316 316 316 317 316 316 317 317 317 319 319 319 318 318 320 319 319 319 319 317 316 315 316 317 316 315 316 319 320 319 320 320 319 319 319 320 319 317 318 317 317 318 318 316 316 317 317 316 315 315 315 317 317 316 316 316 315 315 316 318 320 321 320 320 319
Wind_Speed
8 8 8 7 6 6 5 5 5 5 4 4 4 3 3 4 5 6 6 7 6 6 7 7 6 5 4 3 3 2 2 1 2 2 4 3 4 5 6 6 5 5 5 5 5 3 1 2 4 4 2 0 1 1 1 1 2 4 3 3 1 1 1 2 3 4 5 5 5 6 5 7 4 1 1 2 5 3 4 5 4 7 8 8 12 22 28 27
8 9 8 7 7 6 6 5 5 5 5 4 4 3 2 4 5 6 6 6 7 7 6 7 6 5 4 3 3 2 2 1 1 2 5 5 4 6 6 5 5 5 6 6 4 1 1 3 5 5 4 1 1 1 1 2 2 3 3 4 2 3 1 3 1 1 3 7 7 7 6 5 6 5 2 2 2 2 5 3 4 7 6 8 13 21 25 26
8 9 7 7 7 7 5 4 5 6 5 4 4 3 3 4 4 5 6 6 7 7 7 7 6 5 3 3 3 2 0 2 1 3 6 7 6 7 5 4 5 5 6 5 2 2 2 6 6 4 4 1 1 2 1 1 1 2 3 4 4 5 2 4 3 2 1 8 9 6 5 3 4 5 3 4 5 4 5 4 4 4 4 6 9 16 21 22
9 9 8 8 7 6 6 5 5 5 5 4 4 5 5 4 5 5 6 7 7 7 7 7 6 5 3 3 2 1 2 4 1 3 8 9 8 6 5 4 5 5 6 4 3 3 5 8 4 3 4 1 1 2 2 1 1 1 3 4 5 4 3 3 2 3 4 5 9 6 5 4 3 4 3 5 5 3 6 7 8 9 10 11 9 13 18 19
10 10 8 8 7 6 6 5 5 5 5 5 5 6 6 5 5 6 6 7 7 7 7 7 6 5 3 2 1 2 3 3 1 3 9 11 9 7 5 5 5 5 5 4 3 2 5 6 2 3 3 1 1 2 2 3 2 2 1 4 3 3 3 3 1 4 4 3 6 6 6 4 3 2 4 7 6 5 6 7 11 10 13 16 13 14 15 15
11 10 9 8 6 6 6 6 5 5 6 7 7 6 6 5 5 6 6 7 7 7 7 7 6 4 3 1 2 3 3 2 1 4 9 10 9 7 6 5 4 4 4 3 2 2 2 3 3 2 2 2 2 3 2 3 3 3 1 1 2 3 4 2 0 3 4 6 5 4 3 2 4 1 3 7 6 7 6 7 9 9 15 20 18 16 14 13
13 12 9 8 7 6 6 5 6 7 7 7 7 6 6 5 5 6 6 6 7 7 7 6 5 4 2 2 2 2 2 2 2 6 10 9 9 7 6 4 4 3 3 1 2 1 0 1 1 2 2 1 3 4 2 0 4 5 2 1 3 4 4 2 1 2 5 7 2 2 3 2 5 3 0 3 7 6 5 4 7 9 16 20 16 14 14 16
14 14 10 8 9 8 6 5 6 8 7 6 6 6 7 6 5 6 6 6 6 6 6 6 5 3 3 4 3 3 1 2 4 8 10 9 8 7 6 4 4 2 1 1 2 1 1 1 3 3 2 2 4 3 2 4 4 3 3 1 2 3 2 2 2 3 4 4 2 4 4 2 6 4 1 5 9 6 6 4 8 12 14 15 13 13 13 14
14 16 12 10 9 8 6 5 6 8 7 6 6 6 7 7 6 6 6 7 6 7 6 5 5 3 4 3 4 3 2 3 7 9 9 9 7 6 5 4 4 1 1 2 2 1 1 1 2 2 3 3 4 4 2 5 0 2 4 3 3 2 1 2 3 2 1 1 3 4 1 3 4 2 2 8 9 7 6 6 8 11 11 10 11 12 12 12
14 15 13 11 9 7 6 5 7 8 7 5 5 6 7 6 6 7 7 7 7 7 6 5 5 3 4 2 4 2 2 4 9 9 9 8 7 6 4 3 2 1 1 1 1 3 2 2 2 2 3 1 3 2 2 5 2 2 6 4 5 4 2 2 2 0 1 1 3 3 1 4 3 2 3 8 7 7 7 7 7 9 10 10 9 10 13 14
14 13 12 10 8 7 6 6 8 8 7 6 6 7 7 6 7 7 7 7 7 7 6 6 5 4 4 4 4 3 2 5 9 9 9 7 6 6 4 3 2 1 2 1 3 2 2 1 3 1 1 2 3 3 2 3 2 4 7 5 3 3 1 2 3 1 1 2 1 4 0 3 2 1 6 8 4 8 10 7 7 8 9 9 9 9 11 14
13 13 12 10 9 8 6 6 8 8 6 7 7 8 7 7 7 7 7 7 7 6 6 6 5 5 4 4 2 3 3 5 8 9 8 6 5 4 4 3 2 2 1 1 3 3 3 1 4 3 1 2 3 2 1 1 3 5 7 5 2 4 3 2 2 1 2 1 3 3 3 4 1 6 10 6 1 7 10 8 7 8 7 8 9 8 8 13
14 13 11 10 9 7 6 6 6 7 6 7 8 8 7 7 7 7 6 6 6 6 6 5 5 5 4 1 1 2 3 8 9 9 8 6 6 4 4 3 2 2 0 1 5 5 4 1 5 6 2 4 3 1 2 2 4 3 3 5 2 5 4 6 2 2 3 0 3 3 1 6 6 10 10 5 5 7 8 8 7 7 7 7 7 7 8 12
14 13 12 9 8 8 7 6 6 6 5 6 7 7 7 7 7 7 6 7 7 7 6 6 5 4 3 0 1 2 5 9 10 9 8 7 7 6 4 3 2 2 1 3 6 6 4 2 5 5 2 4 3 1 3 4 3 2 1 2 3 3 4 6 1 4 3 1 3 6 2 7 8 10 9 4 7 9 7 8 7 6 6 6 7 7 8 10
13 12 11 7 7 8 7 6 5 4 5 6 6 6 6 6 7 7 7 7 7 7 7 7 7 5 3 1 0 5 7 7 8 9 8 7 7 5 4 5 5 4 4 5 7 5 5 4 5 4 1 1 4 4 3 3 3 3 3 3 3 3 3 6 0 6 5 2 2 6 2 7 8 9 7 3 5 8 7 7 6 7 7 7 7 8 8 9
12 12 11 9 7 7 6 6 5 4 4 5 5 6 6 7 7 7 8 8 7 8 7 6 6 5 2 1 1 5 5 4 7 9 8 7 6 5 7 8 6 5 5 5 6 5 5 5 3 2 2 2 4 5 4 4 4 3 3 2 2 3 2 4 3 2 5 2 1 1 2 4 5 6 6 5 1 5 6 7 8 8 8 8 7 7 8 8
12 12 12 10 8 7 7 6 6 5 5 5 6 7 7 7 7 8 8 9 9 8 6 4 5 4 1 1 2 3 3 4 8 10 9 7 7 8 8 5 4 4 4 4 4 3 4 4 1 1 2 3 3 5 5 3 3 4 1 1 3 3 4 2 3 4 3 5 1 2 3 6 8 7 6 5 2 4 6 8 9 8 8 8 7 8 8 8
11 9 9 8 8 8 7 6 5 4 5 7 7 8 9 10 10 10 10 10 9 6 3 2 3 3 2 2 3 2 4 7 8 9 9 7 8 8 4 2 3 4 4 4 3 3 3 3 2 2 3 3 2 5 4 3 4 3 3 2 3 2 3 3 3 3 2 3 2 2 3 9 12 11 8 7 5 6 8 9 8 9 9 8 7 8 9 9
9 8 7 7 7 8 6 6 5 5 7 8 10 12 12 11 9 8 7 7 6 4 2 2 4 3 2 3 3 4 7 9 7 7 7 6 6 5 3 3 4 4 4 3 2 2 2 3 4 3 1 2 2 5 6 7 7 7 5 5 3 2 1 3 2 2 3 3 4 5 6 8 10 12 11 9 7 8 10 9 8 8 8 8 7 8 10 10
9 8 8 7 7 7 6 5 5 7 9 10 12 12 9 6 5 3 1 1 2 2 2 4 5 3 1 2 4 8 10 7 4 4 6 5 5 4 3 3 5 5 3 3 1 0 4 5 1 3 5 6 6 6 7 5 6 7 5 4 4 4 1 3 2 4 0 3 5 7 7 8 9 11 12 11 8 6 9 10 9 9 9 8 8 9 11 11
9 9 8 7 6 6 5 5 6 8 9 11 10 7 4 3 3 1 2 2 4 1 3 3 5 4 3 6 10 10 6 3 2 1 6 5 4 5 2 3 5 2 1 4 3 2 5 4 4 6 7 7 6 6 6 4 6 6 5 5 2 2 2 3 2 5 3 2 5 4 4 10 10 10 11 9 9 9 10 10 11 12 11 8 9 11 12 10
9 9 8 6 6 5 4 4 6 8 10 10 6 3 1 2 4 3 3 2 3 1 5 4 5 4 3 7 11 7 3 3 2 2 5 5 2 3 2 4 5 3 2 4 4 4 5 1 7 8 6 4 3 5 8 6 6 5 4 5 2 1 2 2 3 4 2 2 4 5 5 10 11 10 11 10 11 12 11 10 11 11 10 9 9 11 12 10
8 8 7 6 6 5 4 4 6 8 10 9 4 3 3 3 4 3 3 3 1 1 2 3 3 3 2 2 7 5 3 4 3 3 6 5 2 2 5 5 5 4 2 4 5 4 3 4 8 6 4 6 5 5 8 6 4 4 4 5 1 3 1 2 4 4 1 1 2 4 5 10 11 8 10 12 12 13 11 9 9 9 10 11 11 11 11 11
8 7 6 5 4 3 4 5 5 7 8 7 4 2 3 4 4 3 2 3 1 1 1 2 2 4 3 2 7 6 3 3 4 4 8 8 4 2 4 5 5 4 3 5 7 6 4 7 4 4 5 7 5 4 7 5 2 2 3 5 3 2 2 3 2 2 3 4 2 4 5 7 6 5 7 8 5 8 9 8 9 9 10 11 10 10 10 10
10 8 7 5 3 1 4 5 5 6 6 5 4 3 1 1 3 3 2 2 1 1 2 2 1 3 5 5 7 6 2 1 1 3 10 9 5 3 2 3 4 4 6 7 7 5 6 6 2 6 4 6 7 3 3 5 1 4 1 4 6 5 5 3 3 4 5 5 3 3 4 6 5 5 7 6 6 7 6 5 9 11 10 9 9 10 9 8
10 9 8 6 3 1 3 4 4 5 4 3 2 4 4 3 1 1 3 4 2 2 1 2 1 4 6 5 5 4 2 1 3 1 8 6 2 2 2 1 2 3 6 5 4 2 3 1 4 7 5 6 7 2 2 5 5 1 3 4 5 6 7 4 4 4 1 3 3 2 2 5 8 7 9 8 10 11 8 7 10 11 10 8 8 8 8 7
8 9 9 8 5 2 3 3 3 3 3 1 1 3 4 4 3 1 4 5 3 3 4 1 0 5 7 5 6 5 3 4 1 3 4 2 2 2 3 3 2 2 3 4 1 2 2 3 5 5 5 6 5 2 3 6 7 2 5 3 5 7 6 5 6 3 2 3 5 2 3 3 7 8 9 8 10 11 9 11 13 11 11 8 6 7 8 8
10 9 8 9 8 3 3 4 2 3 2 3 1 3 5 6 3 0 5 3 2 2 4 1 0 4 5 3 4 5 3 3 4 1 2 3 0 3 3 5 5 5 2 6 4 5 1 5 5 5 5 3 4 4 4 7 6 5 5 4 5 7 6 5 6 2 1 2 5 4 2 2 7 7 6 4 5 8 9 13 13 11 11 8 6 7 6 6
10 11 9 8 10 6 3 3 2 3 4 5 4 6 7 6 2 3 5 2 2 1 1 1 3 3 3 4 3 3 2 2 2 2 2 3 1 3 3 5 5 5 2 5 6 4 0 4 6 6 5 4 4 2 2 5 4 4 3 5 5 5 5 5 5 3 3 2 5 5 4 2 5 6 4 1 2 7 9 9 10 9 9 6 6 6 4 3
6 10 10 9 10 10 6 2 2 2 7 6 7 8 7 4 3 5 2 2 2 1 1 1 1 2 6 7 2 1 3 3 1 1 2 1 3 5 2 1 4 4 1 5 4 2 2 0 1 3 3 5 4 2 2 3 6 5 6 7 7 6 5 4 3 4 3 4 6 8 9 4 5 6 4 3 4 6 4 4 7 5 2 3 5 5 6 5
3 6 10 11 12 13 8 2 6 3 5 5 5 6 4 3 4 5 4 3 1 1 2 1 1 4 9 10 4 2 4 2 1 3 2 1 2 4 1 1 4 4 2 3 2 4 5 2 0 1 1 4 6 5 5 4 5 7 5 5 4 4 4 5 5 4 1 5 6 6 6 5 5 6 4 5 7 5 5 2 4 2 1 4 6 6 6 5
1 3 9 13 13 13 9 2 5 7 2 1 2 3 4 3 1 4 3 1 1 2 4 3 3 5 8 7 5 4 5 2 2 4 4 3 4 3 3 4 4 3 1 3 1 3 3 3 2 2 1 3 7 5 4 6 5 6 5 6 4 2 2 3 3 0 3 6 4 2 2 3 6 6 5 8 10 6 5 4 4 6 6 6 6 6 6 5
1 2 6 12 14 14 12 4 2 6 5 2 1 4 5 4 5 6 4 2 2 3 4 4 5 8 9 6 4 4 4 2 4 3 2 4 4 5 3 3 6 4 2 4 3 1 3 6 2 2 2 1 6 6 3 1 0 5 6 6 5 3 1 3 3 1 4 5 4 1 1 3 5 4 7 11 11 8 5 5 6 7 7 8 7 6 6 5
0 2 5 10 15 15 14 8 5 7 6 3 4 4 4 5 5 5 5 3 1 2 3 5 7 8 8 5 5 6 3 2 6 4 3 4 4 5 4 4 5 3 4 4 3 5 4 5 3 6 3 4 7 6 7 7 4 5 5 6 6 5 5 5 3 3 5 4 3 2 1 3 2 3 7 8 8 8 6 6 6 6 7 5 4 4 5 6
1 2 3 6 12 15 16 12 9 10 9 6 4 3 5 7 4 4 5 3 1 2 3 6 8 7 6 2 3 7 4 2 5 5 4 5 5 6 5 5 7 5 5 4 2 3 5 6 7 4 2 9 10 6 6 7 2 3 3 5 4 6 5 3 3 6 4 1 2 2 3 5 4 6 8 7 8 9 7 6 5 7 6 2 2 4 6 7
2 1 3 4 8 13 17 14 12 13 12 7 3 3 6 5 2 3 3 2 3 5 7 6 5 4 5 1 2 6 2 3 5 4 2 3 3 5 6 5 9 9 7 6 3 2 3 4 5 1 0 6 8 4 4 4 3 2 3 4 5 5 7 3 3 0 3 2 4 2 5 6 3 7 9 8 10 9 7 8 7 8 6 2 5 7 6 7
4 2 2 5 7 12 15 15 16 16 11 5 5 5 4 2 2 2 0 0 3 7 8 4 2 4 5 3 3 6 2 2 4 4 3 3 2 5 7 4 6 11 10 7 4 3 5 3 4 2 3 5 1 3 1 1 3 5 4 5 3 2 3 4 1 2 2 4 4 2 7 6 2 6 5 3 3 5 6 7 9 10 9 7 8 7 7 7
5 3 2 6 8 9 13 17 19 15 5 2 5 4 3 2 2 1 1 1 2 4 5 4 3 4 5 5 4 6 5 3 5 5 4 3 4 6 9 5 5 12 13 8 4 3 4 3 5 1 3 5 3 3 1 4 1 5 4 4 4 2 1 2 3 2 1 4 4 3 5 4 6 7 2 3 6 7 8 8 8 10 10 9 9 8 8 7
4 2 2 6 9 9 14 19 17 10 3 4 5 3 3 2 4 2 1 2 2 2 2 3 2 3 5 6 5 5 5 6 7 6 4 4 4 5 10 8 5 10 13 10 6 3 3 4 4 1 1 2 4 2 5 1 3 1 1 2 2 3 4 3 4 4 4 4 4 5 4 5 8 6 5 6 8 8 9 8 8 10 10 9 8 7 7 6
1 1 1 5 12 13 16 16 9 4 3 4 4 2 3 2 3 5 2 3 3 1 1 2 1 3 5 5 5 5 5 5 8 6 4 6 4 4 6 8 5 7 11 12 8 2 2 3 4 2 3 0 1 4 8 8 5 3 3 4 2 1 2 2 1 3 4 4 3 3 6 8 7 4 6 9 9 9 9 8 8 9 9 8 7 7 7 6
0 1 1 8 17 19 18 10 2 1 2 3 4 3 3 2 3 5 2 3 3 0 1 1 1 2 3 4 4 5 5 5 6 6 3 5 5 3 2 4 6 7 7 8 8 4 3 3 4 2 1 4 6 6 7 11 10 8 7 8 8 5 4 2 3 2 2 3 4 4 6 12 5 5 7 8 7 7 7 7 8 8 8 8 7 7 6 5
1 1 2 12 23 22 14 3 1 2 1 2 4 3 3 4 4 5 4 3 2 0 2 1 0 1 1 2 1 2 4 5 6 6 5 6 7 5 2 4 4 9 8 7 8 6 4 4 4 4 4 5 7 5 2 5 6 4 3 5 5 5 6 5 5 4 1 3 4 4 5 13 4 6 4 5 7 7 5 7 7 6 7 7 6 5 5 5
2 1 2 15 26 20 8 2 3 3 3 3 3 2 3 4 3 5 5 4 4 3 2 2 2 1 0 2 2 1 1 3 4 4 4 5 4 3 3 7 2 7 7 5 5 3 2 3 3 2 3 3 4 5 5 3 0 2 4 2 3 4 5 5 5 4 3 4 4 3 6 12 4 3 1 3 4 5 5 6 5 5 6 5 5 5 5 5
1 1 1 12 23 17 6 4 5 5 4 3 3 3 3 2 4 6 6 7 6 4 4 5 3 3 2 2 3 1 1 0 1 1 1 2 2 0 4 7 3 4 3 2 3 4 4 3 4 2 1 3 4 3 4 4 1 3 4 4 6 6 5 3 2 2 2 6 8 6 7 11 5 4 5 4 2 2 5 5 3 3 4 4 4 5 5 5
1 1 2 4 11 9 4 2 3 5 6 5 4 6 5 2 4 7 8 8 6 4 5 6 4 4 4 4 4 1 1 2 0 2 1 1 2 1 5 8 5 3 1 1 0 3 5 4 5 6 7 7 5 4 4 3 2 2 4 6 8 9 9 5 2 3 6 8 8 7 8 13 10 2 4 6 6 4 7 7 5 4 4 5 6 5 5 5
1 1 1 1 2 3 2 1 2 2 5 7 6 6 7 6 3 4 7 7 7 6 5 3 4 5 3 5 6 5 5 4 2 2 1 1 3 2 3 5 5 3 1 3 5 1 3 3 6 9 10 9 7 5 5 6 6 5 8 10 9 10 11 8 4 6 10 8 7 9 11 15 17 12 6 5 5 4 6 6 6 6 5 5 6 5 5 5
2 2 3 2 1 2 3 2 3 3 3 6 5 4 8 9 4 2 5 5 6 8 5 2 5 7 6 7 7 7 8 7 5 4 6 4 3 2 2 3 5 5 5 4 5 3 4 2 5 6 7 6 6 2 1 6 9 10 11 12 11 10 11 10 10 12 10 6 9 13 12 13 20 19 9 6 7 7 6 7 7 6 6 6 5 6 6 6
3 1 1 2 1 3 5 5 7 7 5 4 3 2 6 9 8 6 4 3 4 6 4 3 7 11 12 12 8 6 7 8 6 6 7 6 4 2 3 2 2 5 5 3 4 3 5 3 2 1 4 4 4 3 3 3 3 4 6 9 10 10 11 14 17 17 12 8 11 14 11 11 18 18 8 6 8 7 6 8 6 5 6 7 7 7 7 7
3 2 3 1 1 3 4 4 6 8 7 5 4 4 6 9 11 9 5 4 3 6 7 7 10 13 13 12 9 7 8 8 7 8 7 5 6 5 2 2 2 3 4 3 2 2 3 2 1 3 4 8 2 4 4 2 1 2 3 6 7 9 13 15 16 16 13 12 14 15 12 12 15 12 6 6 8 6 6 6 5 5 6 7 7 8 8 9
2 0 2 1 1 2 1 3 6 7 8 7 5 6 5 7 9 7 6 7 6 6 8 11 11 11 11 11 10 9 10 11 10 10 9 7 5 5 5 4 1 2 3 2 1 1 1 1 3 4 3 10 7 3 4 4 4 4 7 8 8 9 10 10 10 10 10 12 14 14 14 15 13 8 7 10 8 4 6 9 8 7 8 7 7 8 9 10
5 1 1 1 2 2 1 2 5 5 6 6 7 8 8 9 9 6 4 7 8 7 9 14 13 7 8 11 11 12 12 12 12 10 10 11 8 6 5 4 5 4 1 2 2 1 2 2 2 3 1 7 6 3 4 5 4 5 10 13 15 12 7 7 7 8 10 12 13 11 11 14 12 5 6 11 8 5 9 12 9 7 7 7 9 9 9 9
9 4 1 1 2 2 2 1 4 5 5 7 9 10 9 10 8 6 3 4 8 10 11 14 14 8 7 12 15 16 12 8 6 4 6 9 7 6 6 5 7 8 5 4 3 2 4 4 2 3 3 5 3 3 4 4 3 5 11 14 15 12 10 10 10 11 12 10 8 9 10 11 11 6 7 11 10 9 11 11 10 9 7 7 8 10 9 9
Wind_Direction
186 172 170 162 152 147 142 132 127 134 138 140 140 150 173 175 178 179 184 193 199 198 194 198 198 199 208 227 256 257 275 249 182 184 194 206 225 208 189 195 207 211 209 204 205 212 253 291 241 194 141 45 95 148 330 331 54 61 80 101 237 231 80 295 235 182 142 150 186 192 160 133 159 190 146 60 59 89 95 78 65 37 46 85 115 135 144 152
191 174 174 162 152 146 140 135 138 144 138 130 133 146 171 171 178 179 183 188 195 201 199 202 201 203 217 236 253 261 280 240 157 237 223 219 209 187 180 192 208 215 214 207 211 225 41 307 253 170 105 44 328 40 13 323 77 100 120 115 215 200 109 317 251 136 126 154 177 193 175 149 175 172 136 153 173 131 111 95 77 68 58 91 119 135 145 154
181 172 177 162 153 147 144 142 138 141 139 136 141 155 169 174 178 179 185 188 194 200 200 204 204 208 223 237 257 276 257 92 73 253 222 210 190 173 173 192 207 211 209 199 213 250 248 292 269 173 100 98 251 68 85 334 80 155 112 105 231 194 143 347 32 12 286 157 159 190 180 160 187 158 140 173 169 165 163 170 123 127 166 151 146 146 151 158
179 178 179 165 160 152 146 142 136 139 141 148 164 172 169 169 177 182 188 191 196 200 202 205 207 212 222 239 262 233 124 87 21 222 190 188 176 164 171 188 196 197 203 210 228 249 271 299 284 153 103 175 267 76 147 252 179 137 106 152 220 162 116 327 16 9 337 145 155 163 130 133 185 154 156 148 136 221 226 200 185 185 178 170 172 164 162 164
183 183 184 173 170 162 153 146 146 147 149 172 187 181 173 172 180 184 189 196 199 200 203 205 210 214 218 241 224 169 115 88 273 201 173 172 159 161 172 179 183 186 195 205 227 257 281 299 0 85 79 150 133 82 205 233 142 69 104 163 194 122 113 281 330 15 354 104 124 116 118 154 161 146 173 146 148 225 231 206 200 191 169 169 174 169 169 171
188 184 186 184 180 170 163 158 161 165 172 189 188 180 179 185 187 187 193 196 201 204 206 207 211 212 214 219 180 164 126 133 244 166 168 161 150 161 161 166 169 178 187 184 253 318 293 321 47 87 91 129 170 150 201 244 109 101 215 79 42 103 125 234 339 9 26 86 95 112 147 156 119 190 204 156 185 216 212 196 193 190 168 165 163 162 171 180
200 193 187 192 193 178 174 175 179 184 186 188 182 178 184 193 195 194 197 197 203 205 206 211 214 215 200 153 138 107 112 200 201 158 167 155 151 159 145 151 148 166 189 172 328 333 171 31 76 172 109 117 188 162 167 126 77 103 168 11 52 94 115 166 148 39 57 92 131 141 113 129 152 196 267 192 226 217 209 187 142 148 152 152 155 166 179 185
213 210 198 195 198 182 179 185 188 193 189 183 180 182 185 190 198 198 198 200 202 203 207 211 215 217 191 163 121 65 23 221 170 159 163 153 151 149 136 133 126 154 204 349 326 349 140 160 222 196 113 212 168 136 127 77 49 91 150 190 98 82 116 132 97 65 62 96 97 86 99 202 192 177 158 235 240 215 196 153 111 121 135 147 163 177 183 186
218 221 215 207 202 188 188 189 187 189 181 177 180 183 186 189 196 197 197 200 198 201 205 204 214 214 190 170 104 89 259 186 154 159 160 153 150 147 142 129 129 139 347 289 282 69 119 156 229 193 169 205 125 104 94 92 2 190 144 145 109 100 141 101 76 64 59 80 69 79 19 279 227 202 263 240 226 198 167 131 125 130 141 163 174 181 185 188
222 221 216 213 207 197 200 191 177 171 160 162 172 181 188 189 193 194 195 198 197 198 200 199 208 195 182 155 93 128 244 158 157 161 156 154 151 147 139 129 146 89 1 258 104 81 124 178 254 215 162 138 96 76 74 111 190 156 114 108 115 138 158 94 108 109 54 35 73 109 278 283 274 319 268 255 228 171 148 142 149 144 158 179 181 188 191 192
219 210 203 205 201 196 197 182 163 152 148 157 167 179 187 189 190 192 195 196 195 192 195 199 197 180 159 115 114 184 228 163 167 158 152 156 152 149 136 144 172 102 49 100 117 108 144 218 287 254 119 71 80 45 46 112 131 120 107 86 86 111 25 60 115 196 60 37 84 115 287 290 359 316 231 248 237 155 155 166 168 163 176 186 187 194 194 201
208 196 194 198 192 190 188 176 158 148 155 162 168 178 182 188 187 188 191 192 191 185 189 190 185 178 137 89 145 208 209 169 163 154 151 150 144 145 129 141 189 148 51 101 162 172 150 1 27 80 155 109 102 61 93 139 105 118 103 88 0 24 359 262 151 174 105 41 255 111 356 303 196 235 240 244 200 143 155 171 180 186 192 193 196 198 199 210
193 187 189 191 187 184 182 177 161 152 161 164 169 173 175 183 180 181 184 182 179 175 182 177 174 172 131 85 230 205 175 156 152 151 144 138 134 126 120 129 164 154 3 177 176 156 133 46 70 111 141 99 120 217 132 68 76 112 93 100 77 23 327 260 200 115 106 25 298 94 316 281 240 245 261 242 163 133 153 182 193 199 203 204 204 205 211 215
180 180 181 182 181 181 179 176 163 155 165 166 164 166 170 172 172 176 173 171 169 166 170 161 159 157 117 274 249 113 148 146 148 152 140 137 130 112 111 123 124 132 148 151 150 131 110 76 85 99 68 95 135 179 67 34 48 102 82 64 83 88 291 286 176 134 131 306 1 85 182 270 268 265 283 256 166 148 173 205 211 210 212 213 211 212 220 219
174 174 176 176 176 179 178 169 161 159 165 158 151 155 160 162 168 169 163 161 158 158 159 153 154 138 90 310 45 121 144 146 154 155 143 142 134 119 114 116 113 114 128 133 124 107 91 85 84 84 35 42 87 89 63 22 13 69 93 328 348 135 265 311 280 161 158 274 13 93 200 273 280 277 298 316 150 153 184 219 230 227 222 221 222 216 220 227
169 170 177 179 175 172 163 148 146 154 151 139 140 148 148 153 159 155 155 152 148 151 142 142 163 141 104 246 127 130 151 166 167 161 155 150 140 133 123 112 105 106 117 119 103 91 78 71 70 104 117 70 84 97 67 34 353 1 105 226 281 135 222 304 313 221 154 142 325 129 224 270 292 297 314 331 127 157 190 224 231 230 229 223 222 219 218 226
171 175 180 176 168 156 146 137 141 145 138 134 136 138 139 142 145 140 140 136 135 141 123 114 162 148 82 86 122 164 184 181 175 172 166 153 143 143 134 112 102 108 99 85 79 69 54 53 58 151 82 69 101 97 69 42 308 314 62 207 246 164 162 225 287 284 120 109 236 236 238 256 273 285 292 296 242 182 208 232 236 232 234 229 217 220 223 219
173 177 173 162 154 147 144 143 146 140 133 135 131 131 131 125 126 126 129 129 118 106 86 55 119 141 254 197 163 178 163 160 167 170 164 151 148 153 154 125 110 92 57 41 34 41 40 31 58 74 29 17 74 94 102 197 196 200 188 190 268 208 167 198 241 253 123 109 234 232 248 258 270 278 272 257 221 203 223 231 236 237 235 234 220 217 223 222
169 174 160 143 137 138 142 146 144 138 135 131 126 126 119 109 108 113 122 131 117 100 151 193 135 136 215 196 161 109 126 142 148 163 165 152 151 152 134 111 94 74 67 50 12 32 76 43 51 93 155 234 193 141 162 196 168 158 172 156 164 175 237 242 244 261 144 136 244 231 236 253 265 276 277 266 232 211 232 239 242 246 239 236 228 222 225 222
159 159 151 139 129 125 132 143 140 137 137 134 131 125 116 106 89 75 80 187 206 178 169 183 154 131 114 124 123 114 117 122 124 168 169 157 148 133 99 72 52 45 78 137 146 336 85 80 117 180 193 212 214 184 169 174 138 127 116 106 139 138 310 274 258 295 107 133 250 237 244 262 261 267 271 274 268 233 232 240 242 243 241 235 230 232 230 225
144 142 139 133 123 118 125 138 139 141 145 145 137 123 131 145 116 151 223 258 261 211 105 124 117 106 119 133 142 136 115 78 35 157 172 171 140 127 120 53 71 48 263 156 138 4 63 95 218 220 203 202 209 176 138 104 86 93 102 79 34 123 183 248 247 296 342 93 267 284 292 271 260 261 265 272 279 259 229 224 235 236 235 235 232 239 240 237
142 135 125 120 111 106 115 126 136 146 155 151 128 87 130 139 115 138 149 155 266 66 102 107 82 71 96 134 159 155 90 81 43 304 195 174 109 138 151 79 112 175 238 115 91 22 48 167 241 235 201 145 94 105 101 87 84 78 90 92 18 278 180 288 313 314 3 114 268 333 335 279 267 258 257 255 253 255 240 220 230 233 234 238 232 238 244 246
152 140 127 119 103 91 82 100 134 148 156 153 113 72 103 86 80 90 100 115 218 330 104 125 107 112 87 137 190 173 97 135 157 252 212 164 118 163 138 112 141 161 134 122 124 99 87 249 243 222 159 101 61 64 82 68 67 80 95 108 238 268 159 272 299 298 292 175 266 337 326 281 278 270 260 252 242 254 260 246 243 235 230 234 232 235 238 238
166 154 147 134 112 90 60 74 120 137 151 156 136 117 103 74 48 36 65 92 150 251 238 199 153 152 159 170 183 168 126 143 144 203 198 164 144 157 143 150 150 139 171 165 142 141 201 255 230 135 110 107 98 62 82 82 2 331 129 138 198 246 150 188 277 313 330 345 348 359 330 286 290 306 279 274 265 261 264 261 260 250 237 239 247 248 239 236
182 173 166 153 143 97 47 61 98 119 139 150 161 194 195 16 2 23 76 63 22 304 320 228 199 176 172 138 158 172 138 99 37 198 183 167 151 143 165 171 141 166 204 172 138 155 231 264 135 119 91 91 108 103 129 131 66 320 260 177 188 164 131 126 23 24 17 341 321 30 352 290 304 313 278 298 322 286 280 275 260 258 252 241 247 250 244 245
192 189 179 173 179 106 47 57 81 99 120 121 155 216 239 246 297 31 89 55 327 270 139 167 169 175 173 142 155 148 90 257 321 132 153 157 170 118 151 192 104 182 199 163 141 169 224 320 88 125 120 90 96 104 208 141 103 317 254 203 170 124 108 98 63 51 45 270 277 76 112 271 299 293 264 275 283 275 286 287 264 261 260 242 237 245 245 247
199 195 189 184 181 122 65 95 98 94 109 71 302 223 222 204 210 264 74 49 303 211 140 176 295 165 173 172 160 131 155 208 58 66 118 118 291 54 118 193 125 181 198 110 141 233 152 95 77 99 99 96 109 138 214 137 112 227 235 172 126 107 111 112 93 93 215 255 315 5 133 246 286 274 257 255 264 276 284 275 265 257 258 257 251 247 242 238
213 208 199 184 177 158 99 112 115 91 67 6 1 174 172 169 187 84 86 82 268 151 130 232 128 144 159 137 123 113 168 175 117 231 336 60 339 40 94 193 168 189 201 109 176 257 156 146 162 137 101 116 169 219 214 131 115 239 217 140 115 115 125 111 96 92 1 8 315 305 139 240 268 270 280 267 262 277 266 258 261 263 267 267 247 239 237 235
208 210 206 184 180 186 147 109 108 77 30 24 92 136 147 153 156 65 83 144 215 96 93 154 116 136 137 94 76 85 78 57 121 226 333 64 36 47 130 202 161 174 215 111 165 248 136 170 181 141 132 184 200 273 249 135 140 220 154 91 62 71 77 76 97 100 33 0 259 229 175 233 268 261 270 324 258 265 259 258 262 271 276 255 213 200 187 182
185 197 202 186 179 193 202 232 215 86 39 50 106 125 135 130 84 85 115 214 171 89 40 121 137 154 142 126 106 120 90 44 45 84 30 65 11 24 126 197 87 118 354 53 106 263 338 196 159 113 152 181 150 73 20 120 138 125 85 61 39 25 32 42 63 80 51 292 253 212 187 192 277 271 235 202 223 232 239 290 292 302 320 213 191 178 177 181
159 182 192 186 183 191 191 234 232 194 48 60 111 121 116 56 67 125 185 225 145 112 117 133 165 139 150 151 153 154 101 66 161 122 106 120 42 25 52 41 56 69 17 33 40 323 346 11 258 8 152 123 99 64 17 25 88 94 81 79 56 349 10 17 359 50 132 257 265 237 194 170 247 264 244 250 262 229 181 227 279 262 186 202 209 206 200 200
132 171 180 186 192 194 188 199 229 214 243 347 98 89 79 68 150 193 201 208 173 187 163 163 180 159 158 153 150 160 134 124 186 149 141 142 163 185 168 176 158 98 262 208 197 330 326 263 241 0 347 124 106 76 18 358 30 78 100 102 94 320 3 352 303 147 220 246 266 266 170 188 244 253 258 274 282 257 207 208 209 196 209 228 232 233 230 215
128 151 166 187 197 198 199 192 169 204 223 239 63 51 76 123 211 217 200 206 192 172 149 146 159 157 152 146 160 161 118 139 183 161 139 125 156 211 246 225 184 145 181 187 155 154 287 301 309 90 315 197 138 134 142 269 142 135 140 133 140 151 154 245 256 269 263 261 277 318 154 247 282 278 244 249 261 258 247 244 219 192 199 219 223 225 236 228
163 149 145 185 198 202 206 191 161 189 187 126 72 61 109 179 220 198 182 220 186 105 103 130 135 144 157 165 176 163 120 195 182 145 122 125 146 211 246 253 215 133 110 151 162 171 205 288 227 175 210 190 179 182 163 153 167 181 155 136 159 166 167 203 207 210 249 276 289 295 220 205 224 269 240 234 259 275 280 268 245 228 225 229 228 210 222 234
317 201 143 172 195 205 207 193 184 184 159 112 71 102 177 204 218 178 178 206 189 72 74 115 118 137 181 216 189 174 155 192 186 144 144 165 173 194 197 208 203 167 133 168 211 170 187 252 235 205 177 171 184 198 147 125 138 225 138 117 188 192 158 168 197 182 183 302 286 244 235 211 204 264 262 252 269 280 291 302 292 263 256 287 283 231 223 231
48 137 175 176 196 208 204 197 192 175 149 116 105 184 209 209 189 184 183 177 166 128 111 115 107 133 186 220 219 200 159 113 161 153 180 200 204 199 197 210 198 184 173 175 195 162 169 269 272 261 264 184 179 174 151 153 188 193 151 174 207 176 133 135 254 206 98 252 265 204 250 281 315 283 265 249 257 272 294 306 298 277 272 262 241 236 236 231
56 49 206 199 205 205 200 197 187 168 148 136 172 200 226 222 209 215 188 100 161 136 124 139 153 153 171 182 200 200 177 94 152 169 193 207 240 207 204 231 197 188 192 183 200 197 157 236 291 126 214 256 197 126 62 349 144 138 184 209 171 89 95 114 217 338 41 248 272 210 238 272 310 271 293 6 308 295 288 274 270 276 280 269 259 255 258 254
22 5 274 230 218 199 191 191 178 158 137 176 190 204 215 229 275 278 54 36 123 124 133 166 167 155 171 183 194 187 169 152 175 185 183 193 242 208 188 208 203 195 199 179 198 233 149 203 291 68 197 280 4 118 229 332 94 142 187 199 127 119 243 122 164 209 202 240 276 268 249 253 226 231 272 342 308 297 281 260 251 260 260 261 268 269 274 288
14 11 308 234 213 194 183 182 168 146 147 197 193 209 196 218 288 289 53 51 50 80 164 192 168 155 175 173 165 172 175 173 175 182 176 180 234 219 181 187 208 201 193 172 184 226 130 189 259 332 223 293 13 156 194 262 337 37 108 163 131 145 177 174 174 173 168 200 249 276 283 251 231 201 160 223 255 260 259 254 242 246 247 247 256 263 277 287
34 75 331 201 194 182 170 168 158 135 169 182 187 196 174 190 265 271 295 73 66 36 177 219 165 152 184 190 167 166 184 183 173 182 197 183 211 254 193 183 189 189 185 180 186 188 116 195 227 308 334 206 182 211 186 172 175 172 166 187 198 107 122 189 208 143 148 172 213 263 276 261 241 180 175 211 234 240 241 238 236 243 246 248 250 249 258 258
197 179 277 183 177 164 150 147 157 166 149 157 183 189 177 163 197 238 256 96 102 9 107 109 22 131 176 195 188 176 172 175 175 182 205 196 203 237 225 189 181 166 162 179 193 190 182 187 171 178 250 199 218 235 200 187 186 179 182 192 191 171 137 167 249 244 140 178 187 177 266 275 247 167 190 202 215 236 226 215 235 248 246 246 245 239 242 245
213 182 175 173 170 156 140 146 198 155 177 186 174 171 179 172 166 191 195 137 133 138 91 89 305 261 179 134 170 171 151 173 187 185 199 210 203 202 302 326 216 170 151 174 202 195 156 126 139 188 217 214 236 262 236 207 217 223 219 193 180 174 152 159 215 241 174 223 211 139 254 271 243 136 168 198 214 230 195 182 206 230 238 238 241 253 260 255
186 211 173 173 172 159 142 205 176 163 225 177 134 142 179 174 157 159 169 177 177 161 169 195 161 182 319 73 80 49 89 177 183 176 201 214 208 208 316 334 284 170 155 170 196 186 122 122 158 228 304 326 309 326 359 17 67 249 260 173 142 185 181 164 181 185 167 208 210 162 244 262 272 77 56 240 233 235 214 200 202 219 240 239 238 254 253 253
173 285 275 178 178 171 169 205 186 198 214 148 134 191 199 188 175 168 167 181 186 163 184 210 181 164 184 113 116 105 41 162 198 197 180 191 216 95 5 350 5 139 158 190 186 190 196 178 156 153 303 324 335 342 339 345 102 206 232 190 181 192 175 153 164 163 200 216 197 188 237 253 261 41 27 9 22 281 259 261 260 258 265 264 259 258 250 248
15 251 298 202 187 186 196 196 184 203 202 190 198 196 193 212 201 187 176 176 183 167 180 205 185 162 168 142 135 160 114 118 205 316 55 21 288 10 18 357 21 89 179 310 344 200 194 185 167 171 204 223 222 208 213 214 168 206 229 202 197 190 175 173 180 188 227 230 205 199 239 255 262 316 10 2 15 344 301 314 333 308 279 272 269 265 263 255
41 196 257 283 224 225 225 130 125 187 193 194 210 203 194 207 219 185 177 181 191 183 178 180 149 147 167 170 180 220 228 189 185 279 345 334 295 335 15 11 38 47 303 7 13 40 152 201 203 194 213 218 203 213 204 158 153 196 216 206 202 197 187 175 162 198 220 229 228 227 236 257 267 264 267 311 338 311 292 314 324 306 292 286 285 292 295 278
229 217 188 175 247 247 239 196 173 190 189 184 196 201 197 205 216 191 192 201 194 185 184 163 156 168 182 183 190 210 215 204 195 232 250 248 259 314 3 56 47 356 335 357 357 42 113 239 238 205 229 216 162 174 163 144 175 202 206 207 209 202 188 183 202 220 216 211 242 241 228 244 263 262 255 267 278 273 270 276 276 277 289 301 310 316 308 291
225 265 227 190 157 201 217 217 202 203 209 199 204 202 196 203 204 199 201 199 185 186 192 193 190 191 186 183 189 190 185 190 195 209 228 232 221 259 340 20 21 356 7 9 341 60 121 239 283 111 268 252 138 94 49 107 184 218 212 215 215 207 196 199 216 226 214 206 240 245 224 225 253 264 257 235 249 254 250 252 254 265 288 298 306 308 299 285
220 286 295 321 65 205 211 191 184 200 209 209 221 214 199 204 207 202 179 152 181 207 204 207 207 203 197 188 185 187 178 181 201 209 203 198 193 194 226 279 307 11 42 49 350 45 136 219 17 68 305 287 221 122 97 83 13 329 265 232 217 215 213 214 224 231 230 232 244 253 252 244 252 266 268 240 243 247 250 261 273 276 277 280 284 287 281 272
192 4 292 338 343 245 217 132 158 192 207 205 220 223 214 219 213 201 178 172 185 196 199 215 216 201 200 196 192 204 196 184 200 207 185 176 186 188 199 213 186 46 45 71 21 318 186 165 48 68 320 286 268 173 159 181 198 247 263 255 241 232 227 228 236 241 245 248 250 258 269 266 258 262 272 265 264 280 284 279 278 270 266 269 268 261 260 266
210 13 37 10 307 235 196 152 157 179 198 199 213 215 214 224 213 192 199 204 195 180 186 209 215 197 200 208 207 215 210 198 209 206 179 180 190 186 197 195 153 139 128 123 125 162 172 150 57 82 221 269 271 226 202 191 182 239 254 248 241 238 232 228 227 224 227 237 247 255 259 262 264 261 265 274 282 286 276 275 276 270 259 259 264 262 260 264
212 263 287 30 309 238 210 227 175 181 198 199 211 214 212 224 211 180 216 239 210 200 191 198 204 192 198 214 216 219 216 200 207 207 175 182 181 171 183 181 158 156 158 153 146 150 155 149 136 151 194 260 260 163 157 140 149 240 246 236 231 231 233 237 238 234 225 218 229 241 242 259 277 273 256 272 280 272 270 272 268 263 259 255 259 264 266 266